Caldwell, NJ

4:22 AM EST on November 14, 2019 (GMT -0500)
Essex County

Weather History for KCDW - September, 2019

Change the Weather History Date:

Friday, September 13, 2019

  Actual Average Record
Temperature  
Mean Temperature 63 °F -  
Max Temperature 72 °F 79 °F 93 °F (2005)
Min Temperature 55 °F 52 °F 40 °F (1955)
Degree Days  
Heating Degree Days 2    
Growing Degree Days 13 (Base 50)    
Moisture  
Dew Point 52 °F    
Average Humidity 63    
Maximum Humidity 90    
Minimum Humidity 47    
Precipitation  
Precipitation 0.00 in - - ()
Sea Level Pressure  
Sea Level Pressure 30.44 in    
Wind  
Wind Speed 6 mph ()    
Max Wind Speed 17 mph    
Max Gust Speed 25 mph    
Visibility 10.0 miles    
Events      
Averages and records for this station are not official NWS values.
T = Trace of Precipitation, MM = Missing Value Source: Averaged Metar Reports

Daily Weather History Graph

Daily Weather History Graph

Search for Another Location

Airport or City:

Astronomy

Sep. 13, 2019 Rise Set
Actual Time 6:35 AM EDT 7:09 PM EDT
Civil Twilight 6:07 AM EDT 7:37 PM EDT
Nautical Twilight 5:35 AM EDT 8:10 PM EDT
Astronomical Twilight 5:01 AM EDT 8:43 PM EDT
Moon 7:22 PM EDT (9/13) 5:49 AM EDT (9/13)
Length of Visible Light 13h 29m
Length of Day
12h 34m
Full, 100% of the Moon is Illuminated
Sep 13
Full
Sep 14
Full
Sep 21
Last Quarter
Sep 28
New
Oct 5
First Quarter

Hourly Weather History & Observations

Time (EDT) Temp. Dew Point Humidity Pressure Visibility Wind Dir Wind Speed Gust Speed Precip Events Conditions
12:53 AM 64.0 °F 57.9 °F 80% 30.32 in 10.0 mi Calm Calm - N/A   Overcast
1:53 AM 63.0 °F 57.0 °F 81% 30.35 in 10.0 mi NE 6.9 mph - N/A   Overcast
2:53 AM 62.1 °F 55.0 °F 78% 30.35 in 10.0 mi NE 5.8 mph - N/A   Overcast
3:53 AM 60.1 °F 54.0 °F 80% 30.36 in 10.0 mi NNE 3.5 mph - N/A   Mostly Cloudy
5:53 AM 57.0 °F 54.0 °F 89% 30.40 in 10.0 mi Calm Calm - N/A   Clear
6:53 AM 55.9 °F 53.1 °F 90% 30.42 in 10.0 mi Calm Calm - N/A   Clear
7:53 AM 60.1 °F 54.0 °F 80% 30.45 in 10.0 mi NE 4.6 mph - N/A   Clear
8:53 AM 63.0 °F 53.1 °F 70% 30.48 in 10.0 mi East 10.4 mph - N/A   Clear
9:53 AM 66.0 °F 53.1 °F 63% 30.48 in 10.0 mi East 11.5 mph - N/A   Scattered Clouds
10:53 AM 68.0 °F 51.1 °F 55% 30.49 in 10.0 mi ESE 17.3 mph 25.3 mph N/A   Partly Cloudy
11:53 AM 68.0 °F 51.1 °F 55% 30.48 in 10.0 mi East 13.8 mph - N/A   Mostly Cloudy
12:53 PM 69.1 °F 52.0 °F 54% 30.48 in 10.0 mi East 11.5 mph 18.4 mph N/A   Mostly Cloudy
1:53 PM 71.1 °F 52.0 °F 51% 30.48 in 10.0 mi ESE 10.4 mph - N/A   Mostly Cloudy
2:53 PM 70.0 °F 50.0 °F 49% 30.46 in 10.0 mi ESE 5.8 mph - N/A   Overcast
3:53 PM 71.1 °F 50.0 °F 47% 30.46 in 10.0 mi SSE 13.8 mph - N/A   Overcast
4:53 PM 71.1 °F 50.0 °F 47% 30.45 in 10.0 mi SSE 6.9 mph - N/A   Mostly Cloudy
5:53 PM 69.1 °F 51.1 °F 53% 30.47 in 10.0 mi South 9.2 mph - N/A   Overcast
6:53 PM 68.0 °F 51.1 °F 55% 30.46 in 10.0 mi South 8.1 mph - N/A   Overcast
7:53 PM 66.9 °F 48.9 °F 52% 30.45 in 10.0 mi SSE 10.4 mph - N/A   Scattered Clouds
8:53 PM 64.9 °F 48.0 °F 54% 30.45 in 10.0 mi SSE 5.8 mph - N/A   Overcast
9:53 PM 64.9 °F 48.9 °F 56% 30.46 in 10.0 mi SSE 5.8 mph - N/A   Overcast
10:53 PM 64.9 °F 50.0 °F 58% 30.44 in 10.0 mi SE 8.1 mph - N/A   Overcast
11:53 PM 64.9 °F 51.1 °F 61% 30.42 in 10.0 mi SSE 4.6 mph - N/A   Overcast